Saint George, UT

4:59 PM MST on February 12, 2016 (GMT -0700)
Saint George Municipal

Weather History for KSGU - January, 2013

Change the Weather History Date:

Tuesday, January 15, 2013

  Actual Average Record
Temperature  
Mean Temperature 26 °F -  
Max Temperature 39 °F 54 °F 67 °F (1945)
Min Temperature 14 °F 30 °F 12 °F (1963)
Degree Days  
Heating Degree Days 38    
Moisture  
Dew Point 3 °F    
Average Humidity 39    
Maximum Humidity 51    
Minimum Humidity 26    
Precipitation  
Precipitation 0.00 in - - ()
Sea Level Pressure  
Sea Level Pressure 30.49 in    
Wind  
Wind Speed 6 mph (SSE)    
Max Wind Speed 12 mph    
Max Gust Speed -    
Visibility 10 miles    
Events      
Averages and records for this station are not official NWS values.
T = Trace of Precipitation, MM = Missing Value Source: NWS Daily Summary

Daily Weather History Graph

Daily Weather History Graph

Search for Another Location

Airport or City:

Trip Planner

Search our weather history database for the weather conditions in past years. The results will help you decide how hot, cold, wet, or windy it might be!

Date:

Astronomy

Jan. 15, 2013 Rise Set
Actual Time 7:46 AM MST 5:41 PM MST
Civil Twilight 7:17 AM MST 6:09 PM MST
Nautical Twilight 6:46 AM MST 6:41 PM MST
Astronomical Twilight 6:14 AM MST 7:12 PM MST
Moon 10:01 AM MST (1/15) 10:26 PM MST (1/15)
Length of Visible Light 10h 51m
Length of Day
9h 54m
Waxing Crescent, 20% of the Moon is Illuminated
Jan 15
Waxing Crescent
Jan 18
First Quarter
Jan 26
Full
Feb 3
Last Quarter
Feb 10
New

Hourly Weather History & Observations

Time (MST) Temp. Windchill Dew Point Humidity Pressure Visibility Wind Dir Wind Speed Gust Speed Precip Events Conditions
12:15 AM 17.6 °F 5.7 °F -4.0 °F 38% 30.43 in 10.0 mi SE 10.4 mph - N/A   Clear
12:35 AM 15.8 °F 4.2 °F -4.0 °F 41% 30.43 in 10.0 mi SSE 9.2 mph - N/A   Clear
1:15 AM 17.6 °F 5.0 °F -2.2 °F 42% 30.44 in 10.0 mi SE 11.5 mph - N/A   Clear
1:35 AM 17.6 °F 5.7 °F -4.0 °F 38% 30.43 in 10.0 mi SSE 10.4 mph - N/A   Clear
1:55 AM 15.8 °F 4.2 °F -2.2 °F 45% 30.43 in 10.0 mi SE 9.2 mph - N/A   Clear
2:15 AM 15.8 °F 4.2 °F -2.2 °F 45% 30.44 in 10.0 mi SSE 9.2 mph - N/A   Clear
2:35 AM 15.8 °F 5.1 °F -4.0 °F 41% 30.45 in 10.0 mi SSE 8.1 mph - N/A   Clear
2:55 AM 15.8 °F 5.1 °F -2.2 °F 45% 30.46 in 10.0 mi SE 8.1 mph - N/A   Clear
3:15 AM 15.8 °F 4.2 °F -4.0 °F 41% 30.46 in 10.0 mi SE 9.2 mph - N/A   Clear
3:55 AM 15.8 °F 7.2 °F -2.2 °F 45% 30.46 in 10.0 mi South 5.8 mph - N/A   Clear
4:15 AM 15.8 °F 7.2 °F -4.0 °F 41% 30.47 in 10.0 mi SSE 5.8 mph - N/A   Clear
4:35 AM 14.0 °F 2.9 °F -2.2 °F 49% 30.46 in 10.0 mi SSE 8.1 mph - N/A   Clear
4:55 AM 15.8 °F 5.1 °F -2.2 °F 45% 30.46 in 10.0 mi SE 8.1 mph - N/A   Clear
5:15 AM 15.8 °F 6.1 °F -2.2 °F 45% 30.45 in 10.0 mi SSE 6.9 mph - N/A   Clear
5:35 AM 14.0 °F 5.1 °F -2.2 °F 49% 30.46 in 10.0 mi SSE 5.8 mph - N/A   Clear
5:55 AM 15.8 °F 10.2 °F -0.4 °F 49% 30.45 in 10.0 mi SSW 3.5 mph - N/A   Clear
6:15 AM 15.8 °F - -2.2 °F 45% 30.44 in 10.0 mi Calm Calm - N/A   Clear
6:35 AM 15.8 °F 8.6 °F -2.2 °F 45% 30.45 in 10.0 mi SE 4.6 mph - N/A   Clear
6:55 AM 15.8 °F - -2.2 °F 45% 30.46 in 10.0 mi Calm Calm - N/A   Clear
7:15 AM 15.8 °F 10.2 °F -2.2 °F 45% 30.47 in 10.0 mi ESE 3.5 mph - N/A   Clear
7:35 AM 14.0 °F - -2.2 °F 49% 30.47 in 10.0 mi Calm Calm - N/A   Clear
7:55 AM 15.8 °F 10.2 °F -0.4 °F 49% 30.48 in 10.0 mi WNW 3.5 mph - N/A   Clear
8:15 AM 15.8 °F 8.6 °F -2.2 °F 45% 30.50 in 10.0 mi NNW 4.6 mph - N/A   Clear
8:35 AM 17.6 °F 12.3 °F -0.4 °F 45% 30.50 in 10.0 mi NE 3.5 mph - N/A   Clear
8:55 AM 17.6 °F - -0.4 °F 45% 30.51 in 10.0 mi Calm Calm - N/A   Clear
9:15 AM 19.4 °F - -0.4 °F 42% 30.51 in 10.0 mi Calm Calm - N/A   Clear
9:35 AM 21.2 °F 13.6 °F -0.4 °F 39% 30.51 in 10.0 mi ESE 5.8 mph - N/A   Clear
9:55 AM 21.2 °F - -0.4 °F 39% 30.53 in 10.0 mi Calm Calm - N/A   Clear
10:15 AM 23.0 °F - -0.4 °F 36% 30.54 in 10.0 mi Calm Calm - N/A   Clear
10:35 AM 24.8 °F - 1.4 °F 36% 30.53 in 10.0 mi Calm Calm - N/A   Clear
10:55 AM 28.4 °F - 3.2 °F 34% 30.53 in 10.0 mi Calm Calm - N/A   Clear
11:15 AM 30.2 °F 26.7 °F 3.2 °F 32% 30.54 in 10.0 mi North 3.5 mph - N/A   Clear
11:35 AM 30.2 °F - 3.2 °F 32% 30.53 in 10.0 mi Calm Calm - N/A   Clear
11:55 AM 30.2 °F 26.7 °F 5.0 °F 34% 30.52 in 10.0 mi South 3.5 mph - N/A   Clear
12:35 PM 33.8 °F 27.7 °F 6.8 °F 32% 30.49 in 10.0 mi WNW 6.9 mph - N/A   Clear
12:55 PM 32.0 °F 24.8 °F 3.2 °F 30% 30.49 in 10.0 mi WNW 8.1 mph - N/A   Clear
1:15 PM 33.8 °F 27.7 °F 5.0 °F 30% 30.48 in 10.0 mi West 6.9 mph - N/A   Clear
1:35 PM 33.8 °F - 6.8 °F 32% 30.48 in 10.0 mi Calm Calm - N/A   Clear
1:55 PM 35.6 °F 32.8 °F 6.8 °F 30% 30.48 in 10.0 mi South 3.5 mph - N/A   Clear
2:15 PM 35.6 °F 29.9 °F 6.8 °F 30% 30.47 in 10.0 mi SSE 6.9 mph - N/A   Clear
2:35 PM 35.6 °F - 6.8 °F 30% 30.46 in 10.0 mi Calm Calm - N/A   Clear
2:55 PM 35.6 °F - 6.8 °F 30% 30.47 in 10.0 mi Calm Calm - N/A   Clear
3:15 PM 37.4 °F - 8.6 °F 30% 30.47 in 10.0 mi Calm Calm - N/A   Clear
3:35 PM 39.2 °F 37.0 °F 6.8 °F 26% 30.47 in 10.0 mi NNE 3.5 mph - N/A   Clear
3:55 PM 37.4 °F - 6.8 °F 28% 30.47 in 10.0 mi Calm Calm - N/A   Clear
4:35 PM 37.4 °F 33.8 °F 6.8 °F 28% 30.48 in 10.0 mi SW 4.6 mph - N/A   Clear
4:55 PM 37.4 °F 32.8 °F 6.8 °F 28% 30.48 in 10.0 mi South 5.8 mph - N/A   Clear
5:15 PM 37.4 °F 32.8 °F 6.8 °F 28% 30.49 in 10.0 mi South 5.8 mph - N/A   Clear
5:35 PM 37.4 °F 33.8 °F 6.8 °F 28% 30.50 in 10.0 mi South 4.6 mph - N/A   Clear
5:55 PM 35.6 °F 32.8 °F 6.8 °F 30% 30.50 in 10.0 mi SSW 3.5 mph - N/A   Clear
6:15 PM 35.6 °F 31.7 °F 6.8 °F 30% 30.50 in 10.0 mi South 4.6 mph - N/A   Clear
6:35 PM 35.6 °F 32.8 °F 6.8 °F 30% 30.51 in 10.0 mi SSW 3.5 mph - N/A   Clear
6:55 PM 32.0 °F 27.5 °F 6.8 °F 35% 30.52 in 10.0 mi SSE 4.6 mph - N/A   Clear
7:15 PM 30.2 °F 24.3 °F 6.8 °F 37% 30.52 in 10.0 mi SSW 5.8 mph - N/A   Clear
7:35 PM 30.2 °F 23.4 °F 6.8 °F 37% 30.52 in 10.0 mi South 6.9 mph - N/A   Clear
7:55 PM 26.6 °F 18.2 °F 3.2 °F 37% 30.52 in 10.0 mi SSE 8.1 mph - N/A   Clear
8:15 PM 30.2 °F 24.3 °F 8.6 °F 40% 30.52 in 10.0 mi SSE 5.8 mph - N/A   Clear
8:35 PM 28.4 °F 23.3 °F 6.8 °F 40% 30.52 in 10.0 mi SE 4.6 mph - N/A   Clear
8:55 PM 26.6 °F 18.2 °F 6.8 °F 43% 30.52 in 10.0 mi SE 8.1 mph - N/A   Clear
9:15 PM 26.6 °F 20.0 °F 8.6 °F 47% 30.53 in 10.0 mi South 5.8 mph - N/A   Clear
9:35 PM 26.6 °F 20.0 °F 8.6 °F 47% 30.52 in 10.0 mi SSE 5.8 mph - N/A   Clear
9:55 PM 26.6 °F 20.0 °F 10.4 °F 51% 30.52 in 10.0 mi South 5.8 mph - N/A   Clear
10:15 PM 26.6 °F 18.2 °F 8.6 °F 47% 30.52 in 10.0 mi SE 8.1 mph - N/A   Clear
10:35 PM 26.6 °F 17.5 °F 10.4 °F 51% 30.52 in 10.0 mi SE 9.2 mph - N/A   Clear
11:15 PM 28.4 °F 21.2 °F 12.2 °F 51% 30.51 in 10.0 mi SSE 6.9 mph - N/A   Clear
11:35 PM 26.6 °F 19.1 °F 10.4 °F 51% 30.51 in 10.0 mi SE 6.9 mph - N/A   Clear
11:55 PM 28.4 °F 19.1 °F 12.2 °F 51% 30.50 in 10.0 mi SSE 10.4 mph - N/A   Clear